Location: Andrea Ville Subdivision
(14.3485°N, 120.9580°E)
Time: 02:20:11
(UTC+00:00)

Daily predictions for brighter satellites

Satellite Brightness Start Highest point End
(mag) Time Altitude Azimuth Time Altitude Azimuth Time Altitude Azimuth
Cosmos 1470 Rocket 4.1 10:00:21 10° NNE 10:04:22 37° E 10:08:24 10° SSE
Cosmos 1452 Rocket 4.1 10:04:19 10° SSW 10:09:28 63° WNW 10:14:39 10° N
SAR-Lupe-4 3.6 10:07:32 10° SSE 10:11:02 57° ENE 10:14:32 10° N
Cosmos 676 Rocket 4.3 10:07:19 10° N 10:12:14 42° ENE 10:17:09 10° SE
Cosmos 1833 Rocket 3.5 10:09:57 10° SSE 10:14:51 32° ESE 10:19:47 10° NE
Spot 4 Rocket 4.5 10:21:40 10° SE 10:26:19 37° ENE 10:31:00 10° N
Cosmos 1992 Rocket 4.3 10:22:13 10° S 10:27:05 43° E 10:31:57 10° NNE
Resurs 1-3 3.7 10:25:08 10° SSE 10:29:16 48° ENE 10:33:24 10° N
CARTOSAT-1 4.4 10:29:45 10° SE 10:33:13 25° ENE 10:36:41 10° NNE
CZ-2D R/B 3.4 10:29:57 10° SSE 10:33:47 52° ENE 10:37:33 10° N
Ariane H10+ 3.8 10:26:28 10° WSW 10:35:39 35° SSW 10:38:37 10° SE
SL-8 Rocket 4.4 10:29:44 10° NNW 10:35:49 65° W 10:41:53 10° S
Intelsat 5-3 Rocket 4.4 10:25:19 10° WNW 10:36:01 41° N 10:39:50 17° NE
Cosmos 2369 Rocket 2.8 10:31:14 10° NNW 10:36:48 60° WSW 10:42:19 10° S
Cosmos 1340 Rocket 3.9 10:37:38 20° ENE 10:38:24 21° E 10:41:21 10° SE
Meteosat 1 Rocket2 4.0 10:36:38 10° W 10:40:21 37° NNW 10:43:44 17° NE
SWIFT 2.7 10:41:39 10° WNW 10:44:41 32° N 10:45:38 26° NE
Cosmos 1953 3.0 10:41:34 10° NNW 10:45:09 51° W 10:48:43 10° S
Cosmos 1862 Rocket 4.2 10:43:24 10° SSE 10:47:24 34° E 10:49:23 23° NE
Helios 1A Rocket 3.5 10:45:27 10° N 10:48:36 43° WNW 10:51:45 10° SSW
Cosmos 1339 Rocket 4.5 10:49:53 10° S 10:56:12 89° E 11:02:24 10° N
BlueWalker 3 3.6 10:54:17 10° SSE 10:56:11 17° SE 10:56:11 17° SE
Delta 2 Rocket 4.0 10:50:31 10° WNW 10:57:36 68° NNE 11:01:19 25° E
Resurs 01 Rocket 1.9 10:54:28 10° SSE 10:58:33 40° ENE 11:01:26 18° NNE
Cosmos 1821 Rocket 4.1 10:53:37 10° N 10:59:44 76° W 11:05:48 10° S
Meteor 2-15 4.4 10:54:42 10° N 11:00:48 85° W 11:06:52 10° S
Meteor 2-19 Rocket 4.4 10:57:12 10° S 11:03:14 60° E 11:08:55 12° NNE
GEOS 3 Rocket 4.5 11:02:24 28° E 11:03:22 30° ESE 11:07:55 10° S
Cosmos 1707 Rocket 3.5 10:59:35 10° S 11:03:51 55° E 11:05:18 36° NE
Cosmos 2228 Rocket 3.4 11:01:43 10° SSE 11:05:59 42° E 11:06:13 41° E
YAOGAN 1 3.5 11:02:27 10° S 11:06:32 47° W 11:10:38 10° NNW
Delta 7925 Rocket 4.4 11:02:55 10° W 11:10:42 57° NNW 11:13:31 33° NE
ATLAS 5 CENTAUR R/B 2.2 11:14:24 10° WNW 11:14:56 17° WNW 11:14:56 17° WNW
Delta 168 3.1 11:15:14 10° SW 11:18:22 44° S 11:18:22 44° S
Meteor 1-24 Rocket 4.3 11:14:34 10° SSE 11:18:33 36° ESE 11:18:33 36° ESE
GPS 2-17 Rocket1 3.5 11:20:46 10° WNW 11:24:34 44° NNW 11:24:34 44° NNW
USA 305 4.3 11:30:11 10° SSW 11:31:23 23° SSW 11:31:23 23° SSW
Cosmos 1741 Rocket 4.2 11:36:00 10° NNW 11:41:08 67° WSW 11:46:16 10° S
Cosmos 2082 Rocket 3.8 11:39:31 10° S 11:41:31 21° SSE 11:41:31 21° SSE
Cosmos 1934 Rocket 3.8 11:44:46 45° N 11:46:51 88° E 11:53:08 10° S
